Orbital Elements at Epoch 2459200.5 (2020-Dec-17.0) TDB
Reference: JPL 26 (heliocentric ecliptic J2000)
Element | Value | Uncertainty (1-sigma) | Units |
e | .2241828517766005 | 3.1417e-08 | |
a | 2.295367603177314 | 8.9089e-09 | au |
q | 1.780785548021403 | 7.1235e-08 | au |
i | 5.325095976080044 | 4.2339e-06 | deg |
node | 229.4504268226955 | 3.9165e-05 | deg |
peri | 37.79244681567064 | 4.0461e-05 | deg |
M | 113.5494022400698 | 1.2127e-05 | deg |
tp | 2458799.855532473918 (2019-Nov-12.35553247) | 4.1681e-05 | TDB |
period | 1270.21371723692 3.48 | 7.395e-06 2.025e-08 | d yr |
n | .2834168731724165 | 1.65e-09 | deg/d |
Q | 2.809949658333224 | 1.0906e-08 | au |
|
| | Orbit Determination Parameters
Additional Information
|